Location: Ch�teau-Arnoux
(44.0814°N, 6.0027°E)
Time: 12:29:24
(UTC+00:00)

SL-27 R/B - Visible Passes

Search period start: 18 February 2020 00:00
Search period end: 28 February 2020 00:00
Orbit: 420 x 472 km, 74.7° (Epoch: 17 February)

Date Brightness Start Highest point End Pass type
(mag) Time Alt. Az. Time Alt. Az. Time Alt. Az.
18 Feb 3.5 18:17:00 10° N 18:19:48 23° ENE 18:19:54 23° ENE visible
18 Feb 5.3 19:52:19 10° NW 19:53:32 16° WNW 19:53:32 16° WNW visible
19 Feb 4.3 17:40:47 10° NNE 17:42:24 13° ENE 17:44:00 10° E visible
19 Feb 3.6 19:14:35 10° NW 19:17:44 39° WSW 19:18:11 36° SW visible
20 Feb 2.2 18:37:15 10° NNW 18:40:36 89° W 18:43:13 15° SSE visible
21 Feb 2.7 18:00:12 10° N 18:03:23 40° ENE 18:06:32 10° SE visible
21 Feb 5.7 19:37:11 10° W 19:38:04 11° W 19:38:57 10° WSW visible
22 Feb 4.9 18:58:29 10° NW 19:01:07 22° W 19:03:42 10° SSW visible
23 Feb 3.5 18:20:51 10° NNW 18:24:03 46° WSW 18:27:13 10° S visible
24 Feb 2.2 17:43:35 10° NNW 17:46:55 77° ENE 17:50:12 10° SSE visible
25 Feb 5.8 18:42:56 10° WNW 18:44:25 13° W 18:45:55 10° SW visible
26 Feb 5.0 18:04:39 10° NW 18:07:27 25° WSW 18:10:12 10° SSW visible
